owner,sensor,date,latitude,longitude,vertical_datum,sea_water_practical_salinity,qcFlag 
FWRI,ioos:station:FWRI:NPD:2,2013-08-01T00:59:00Z,27.3338,-82.5794,0.0,32.63,1111122 
FWRI,ioos:station:FWRI:NPD:2,2013-08-01T01:59:00Z,27.3338,-82.5794,0.0,32.77,1111122 
FWRI,ioos:station:FWRI:NPD:2,2013-08-01T02:59:00Z,27.3338,-82.5794,0.0,32.86,1111122 
FWRI,ioos:station:FWRI:NPD:2,2013-08-01T03:59:00Z,27.3338,-82.5794,0.0,32.9,1111122 
FWRI,ioos:station:FWRI:NPD:2,2013-08-01T04:59:00Z,27.3338,-82.5794,0.0,32.97,1111122 
FWRI,ioos:station:FWRI:NPD:2,2013-08-01T05:59:00Z,27.3338,-82.5794,0.0,32.93,1111122 
FWRI,ioos:station:FWRI:NPD:2,2013-08-01T06:59:00Z,27.3338,-82.5794,0.0,32.92,1111122 
FWRI,ioos:station:FWRI:NPD:2,2013-08-01T07:59:00Z,27.3338,-82.5794,0.0,32.97,1111122 
FWRI,ioos:station:FWRI:NPD:2,2013-08-01T08:59:00Z,27.3338,-82.5794,0.0,32.99,1111122 
FWRI,ioos:station:FWRI:NPD:2,2013-08-01T09:59:00Z,27.3338,-82.5794,0.0,33.21,1111122 
FWRI,ioos:station:FWRI:NPD:2,2013-08-01T10:59:00Z,27.3338,-82.5794,0.0,33.34,1111122 
FWRI,ioos:station:FWRI:NPD:2,2013-08-01T11:59:00Z,27.3338,-82.5794,0.0,33.45,1111122 
FWRI,ioos:station:FWRI:NPD:2,2013-08-01T12:59:00Z,27.3338,-82.5794,0.0,33.51,1111122 
FWRI,ioos:station:FWRI:NPD:2,2013-08-01T13:59:00Z,27.3338,-82.5794,0.0,33.55,1111122 
FWRI,ioos:station:FWRI:NPD:2,2013-08-01T14:59:00Z,27.3338,-82.5794,0.0,33.58,1111122 
FWRI,ioos:station:FWRI:NPD:2,2013-08-01T15:59:00Z,27.3338,-82.5794,0.0,33.22,1111122 
FWRI,ioos:station:FWRI:NPD:2,2013-08-01T16:59:00Z,27.3338,-82.5794,0.0,32.69,1111122 
FWRI,ioos:station:FWRI:NPD:2,2013-08-01T17:59:00Z,27.3338,-82.5794,0.0,32.41,1111122 
FWRI,ioos:station:FWRI:NPD:2,2013-08-01T18:59:00Z,27.3338,-82.5794,0.0,32.36,1111122 
FWRI,ioos:station:FWRI:NPD:2,2013-08-01T19:59:00Z,27.3338,-82.5794,0.0,32.2,1111122 
FWRI,ioos:station:FWRI:NPD:2,2013-08-01T20:59:00Z,27.3338,-82.5794,0.0,32.17,1111122 
FWRI,ioos:station:FWRI:NPD:2,2013-08-01T21:59:00Z,27.3338,-82.5794,0.0,32.15,1111122 
FWRI,ioos:station:FWRI:NPD:2,2013-08-01T22:59:00Z,27.3338,-82.5794,0.0,32.07,1111122 
FWRI,ioos:station:FWRI:NPD:2,2013-08-01T23:59:00Z,27.3338,-82.5794,0.0,32.09,1111122 
FWRI,ioos:station:FWRI:NPD:2,2013-08-02T00:59:00Z,27.3338,-82.5794,0.0,32.47,1111122 
FWRI,ioos:station:FWRI:NPD:2,2013-08-02T01:59:00Z,27.3338,-82.5794,0.0,32.89,1111122 
FWRI,ioos:station:FWRI:NPD:2,2013-08-02T02:59:00Z,27.3338,-82.5794,0.0,33.05,1111122 
FWRI,ioos:station:FWRI:NPD:2,2013-08-02T03:59:00Z,27.3338,-82.5794,0.0,33.1,1111122 
FWRI,ioos:station:FWRI:NPD:2,2013-08-02T04:59:00Z,27.3338,-82.5794,0.0,33.2,1111122 
FWRI,ioos:station:FWRI:NPD:2,2013-08-02T05:59:00Z,27.3338,-82.5794,0.0,33.31,1111122 
FWRI,ioos:station:FWRI:NPD:2,2013-08-02T06:59:00Z,27.3338,-82.5794,0.0,33.3,1111122 
FWRI,ioos:station:FWRI:NPD:2,2013-08-02T07:59:00Z,27.3338,-82.5794,0.0,33.31,1111122 
FWRI,ioos:station:FWRI:NPD:2,2013-08-02T08:59:00Z,27.3338,-82.5794,0.0,33.39,1111122 
FWRI,ioos:station:FWRI:NPD:2,2013-08-02T09:59:00Z,27.3338,-82.5794,0.0,33.4,1111122 
FWRI,ioos:station:FWRI:NPD:2,2013-08-02T10:59:00Z,27.3338,-82.5794,0.0,33.46,1111122 
FWRI,ioos:station:FWRI:NPD:2,2013-08-02T11:59:00Z,27.3338,-82.5794,0.0,33.53,1111122 
FWRI,ioos:station:FWRI:NPD:2,2013-08-02T12:59:00Z,27.3338,-82.5794,0.0,33.6,1111122 
FWRI,ioos:station:FWRI:NPD:2,2013-08-02T13:59:00Z,27.3338,-82.5794,0.0,33.61,1111122 
FWRI,ioos:station:FWRI:NPD:2,2013-08-02T14:59:00Z,27.3338,-82.5794,0.0,33.64,1111122 
FWRI,ioos:station:FWRI:NPD:2,2013-08-02T15:59:00Z,27.3338,-82.5794,0.0,33.63,1111122 
FWRI,ioos:station:FWRI:NPD:2,2013-08-02T16:59:00Z,27.3338,-82.5794,0.0,33.6,1111122 
FWRI,ioos:station:FWRI:NPD:2,2013-08-02T17:59:00Z,27.3338,-82.5794,0.0,32.95,1111122 
FWRI,ioos:station:FWRI:NPD:2,2013-08-02T18:59:00Z,27.3338,-82.5794,0.0,32.68,1111122 
FWRI,ioos:station:FWRI:NPD:2,2013-08-02T19:59:00Z,27.3338,-82.5794,0.0,32.56,1111122 
FWRI,ioos:station:FWRI:NPD:2,2013-08-02T20:59:00Z,27.3338,-82.5794,0.0,32.45,1111122 
FWRI,ioos:station:FWRI:NPD:2,2013-08-02T21:59:00Z,27.3338,-82.5794,0.0,32.35,1111122 
FWRI,ioos:station:FWRI:NPD:2,2013-08-02T22:59:00Z,27.3338,-82.5794,0.0,32.24,1111122 
FWRI,ioos:station:FWRI:NPD:2,2013-08-02T23:59:00Z,27.3338,-82.5794,0.0,32.17,1111122 
FWRI,ioos:station:FWRI:NPD:2,2013-08-03T00:59:00Z,27.3338,-82.5794,0.0,32.4,1111122 
FWRI,ioos:station:FWRI:NPD:2,2013-08-03T01:59:00Z,27.3338,-82.5794,0.0,33.12,1111122 
FWRI,ioos:station:FWRI:NPD:2,2013-08-03T02:59:00Z,27.3338,-82.5794,0.0,33.29,1111122 
FWRI,ioos:station:FWRI:NPD:2,2013-08-03T03:59:00Z,27.3338,-82.5794,0.0,33.48,1111122 
FWRI,ioos:station:FWRI:NPD:2,2013-08-03T04:59:00Z,27.3338,-82.5794,0.0,33.49,1111122 
FWRI,ioos:station:FWRI:NPD:2,2013-08-03T05:59:00Z,27.3338,-82.5794,0.0,33.54,1111122 
FWRI,ioos:station:FWRI:NPD:2,2013-08-03T06:59:00Z,27.3338,-82.5794,0.0,33.56,1111122 
FWRI,ioos:station:FWRI:NPD:2,2013-08-03T07:59:00Z,27.3338,-82.5794,0.0,33.18,1111122 
FWRI,ioos:station:FWRI:NPD:2,2013-08-03T08:59:00Z,27.3338,-82.5794,0.0,33.09,1111122 
FWRI,ioos:station:FWRI:NPD:2,2013-08-03T09:59:00Z,27.3338,-82.5794,0.0,33.06,1111122 
FWRI,ioos:station:FWRI:NPD:2,2013-08-03T10:59:00Z,27.3338,-82.5794,0.0,33.56,1111122 
FWRI,ioos:station:FWRI:NPD:2,2013-08-03T11:59:00Z,27.3338,-82.5794,0.0,33.66,1111122 
FWRI,ioos:station:FWRI:NPD:2,2013-08-03T12:59:00Z,27.3338,-82.5794,0.0,33.62,1111122 
FWRI,ioos:station:FWRI:NPD:2,2013-08-03T13:59:00Z,27.3338,-82.5794,0.0,33.64,1111122 
FWRI,ioos:station:FWRI:NPD:2,2013-08-03T14:59:00Z,27.3338,-82.5794,0.0,33.65,1111122 
FWRI,ioos:station:FWRI:NPD:2,2013-08-03T15:59:00Z,27.3338,-82.5794,0.0,33.66,1111122 
FWRI,ioos:station:FWRI:NPD:2,2013-08-03T16:59:00Z,27.3338,-82.5794,0.0,33.68,1111122 
FWRI,ioos:station:FWRI:NPD:2,2013-08-03T17:59:00Z,27.3338,-82.5794,0.0,33.49,1111122 
FWRI,ioos:station:FWRI:NPD:2,2013-08-03T18:59:00Z,27.3338,-82.5794,0.0,33.09,1111122 
FWRI,ioos:station:FWRI:NPD:2,2013-08-03T19:59:00Z,27.3338,-82.5794,0.0,32.9,1111122 
FWRI,ioos:station:FWRI:NPD:2,2013-08-03T20:59:00Z,27.3338,-82.5794,0.0,32.83,1111122 
FWRI,ioos:station:FWRI:NPD:2,2013-08-03T21:59:00Z,27.3338,-82.5794,0.0,32.82,1111122 
FWRI,ioos:station:FWRI:NPD:2,2013-08-03T22:59:00Z,27.3338,-82.5794,0.0,32.64,1111122 
FWRI,ioos:station:FWRI:NPD:2,2013-08-03T23:59:00Z,27.3338,-82.5794,0.0,32.5,1111122 
FWRI,ioos:station:FWRI:NPD:2,2013-08-04T00:59:00Z,27.3338,-82.5794,0.0,32.45,1111122 
FWRI,ioos:station:FWRI:NPD:2,2013-08-04T01:59:00Z,27.3338,-82.5794,0.0,32.54,1111122 
FWRI,ioos:station:FWRI:NPD:2,2013-08-04T02:59:00Z,27.3338,-82.5794,0.0,33.13,1111122 
FWRI,ioos:station:FWRI:NPD:2,2013-08-04T03:59:00Z,27.3338,-82.5794,0.0,33.3,1111122 
FWRI,ioos:station:FWRI:NPD:2,2013-08-04T04:59:00Z,27.3338,-82.5794,0.0,33.34,1111122 
FWRI,ioos:station:FWRI:NPD:2,2013-08-04T05:59:00Z,27.3338,-82.5794,0.0,33.36,1111122 
FWRI,ioos:station:FWRI:NPD:2,2013-08-04T06:59:00Z,27.3338,-82.5794,0.0,33.41,1111122 
FWRI,ioos:station:FWRI:NPD:2,2013-08-04T07:59:00Z,27.3338,-82.5794,0.0,33.45,1111122 
FWRI,ioos:station:FWRI:NPD:2,2013-08-04T08:59:00Z,27.3338,-82.5794,0.0,33.41,1111122 
FWRI,ioos:station:FWRI:NPD:2,2013-08-04T09:59:00Z,27.3338,-82.5794,0.0,33.39,1111122 
FWRI,ioos:station:FWRI:NPD:2,2013-08-04T10:59:00Z,27.3338,-82.5794,0.0,33.23,1111122 
FWRI,ioos:station:FWRI:NPD:2,2013-08-04T11:59:00Z,27.3338,-82.5794,0.0,33.41,1111122 
FWRI,ioos:station:FWRI:NPD:2,2013-08-04T12:59:00Z,27.3338,-82.5794,0.0,33.46,1111122 
FWRI,ioos:station:FWRI:NPD:2,2013-08-04T13:59:00Z,27.3338,-82.5794,0.0,33.45,1111122 
FWRI,ioos:station:FWRI:NPD:2,2013-08-04T14:59:00Z,27.3338,-82.5794,0.0,33.42,1111122 
FWRI,ioos:station:FWRI:NPD:2,2013-08-04T15:59:00Z,27.3338,-82.5794,0.0,33.4,1111122 
FWRI,ioos:station:FWRI:NPD:2,2013-08-04T16:59:00Z,27.3338,-82.5794,0.0,33.38,1111122 
FWRI,ioos:station:FWRI:NPD:2,2013-08-04T17:59:00Z,27.3338,-82.5794,0.0,33.36,1111122 
FWRI,ioos:station:FWRI:NPD:2,2013-08-04T18:59:00Z,27.3338,-82.5794,0.0,33.32,1111122 
FWRI,ioos:station:FWRI:NPD:2,2013-08-04T19:59:00Z,27.3338,-82.5794,0.0,33.33,1111122 
FWRI,ioos:station:FWRI:NPD:2,2013-08-04T20:59:00Z,27.3338,-82.5794,0.0,33.3,1111122 
FWRI,ioos:station:FWRI:NPD:2,2013-08-04T21:59:00Z,27.3338,-82.5794,0.0,33.21,1111122 
FWRI,ioos:station:FWRI:NPD:2,2013-08-04T22:59:00Z,27.3338,-82.5794,0.0,33.04,1111122 
FWRI,ioos:station:FWRI:NPD:2,2013-08-04T23:59:00Z,27.3338,-82.5794,0.0,32.84,1111122 
FWRI,ioos:station:FWRI:NPD:2,2013-08-05T00:59:00Z,27.3338,-82.5794,0.0,32.67,1111122 
FWRI,ioos:station:FWRI:NPD:2,2013-08-05T01:59:00Z,27.3338,-82.5794,0.0,32.66,1111122 
FWRI,ioos:station:FWRI:NPD:2,2013-08-05T02:59:00Z,27.3338,-82.5794,0.0,32.95,1111122 
FWRI,ioos:station:FWRI:NPD:2,2013-08-05T03:59:00Z,27.3338,-82.5794,0.0,33.21,1111122 
FWRI,ioos:station:FWRI:NPD:2,2013-08-05T04:59:00Z,27.3338,-82.5794,0.0,33.28,1111122 
FWRI,ioos:station:FWRI:NPD:2,2013-08-05T05:59:00Z,27.3338,-82.5794,0.0,33.33,1111122 
FWRI,ioos:station:FWRI:NPD:2,2013-08-05T06:59:00Z,27.3338,-82.5794,0.0,33.34,1111122 
FWRI,ioos:station:FWRI:NPD:2,2013-08-05T07:59:00Z,27.3338,-82.5794,0.0,33.32,1111122 
FWRI,ioos:station:FWRI:NPD:2,2013-08-05T08:59:00Z,27.3338,-82.5794,0.0,33.38,1111122 
FWRI,ioos:station:FWRI:NPD:2,2013-08-05T09:59:00Z,27.3338,-82.5794,0.0,33.31,1111122 
FWRI,ioos:station:FWRI:NPD:2,2013-08-05T10:59:00Z,27.3338,-82.5794,0.0,33.35,1111122 
FWRI,ioos:station:FWRI:NPD:2,2013-08-05T11:59:00Z,27.3338,-82.5794,0.0,33.25,1111122 
FWRI,ioos:station:FWRI:NPD:2,2013-08-05T12:59:00Z,27.3338,-82.5794,0.0,33.35,1111122 
FWRI,ioos:station:FWRI:NPD:2,2013-08-05T13:59:00Z,27.3338,-82.5794,0.0,33.49,1111122 
FWRI,ioos:station:FWRI:NPD:2,2013-08-05T14:59:00Z,27.3338,-82.5794,0.0,33.53,1111122 
FWRI,ioos:station:FWRI:NPD:2,2013-08-05T15:59:00Z,27.3338,-82.5794,0.0,33.59,1111122 
FWRI,ioos:station:FWRI:NPD:2,2013-08-05T16:59:00Z,27.3338,-82.5794,0.0,33.62,1111122 
FWRI,ioos:station:FWRI:NPD:2,2013-08-05T17:59:00Z,27.3338,-82.5794,0.0,33.59,1111122 
FWRI,ioos:station:FWRI:NPD:2,2013-08-05T18:59:00Z,27.3338,-82.5794,0.0,33.53,1111122 
FWRI,ioos:station:FWRI:NPD:2,2013-08-05T19:59:00Z,27.3338,-82.5794,0.0,33.47,1111122 
FWRI,ioos:station:FWRI:NPD:2,2013-08-05T20:59:00Z,27.3338,-82.5794,0.0,33.38,1111122 
FWRI,ioos:station:FWRI:NPD:2,2013-08-05T21:59:00Z,27.3338,-82.5794,0.0,33.14,1111122 
FWRI,ioos:station:FWRI:NPD:2,2013-08-05T22:59:00Z,27.3338,-82.5794,0.0,32.94,1111122 
FWRI,ioos:station:FWRI:NPD:2,2013-08-05T23:59:00Z,27.3338,-82.5794,0.0,32.78,1111122 
FWRI,ioos:station:FWRI:NPD:2,2013-08-06T00:59:00Z,27.3338,-82.5794,0.0,32.7,1111122 
FWRI,ioos:station:FWRI:NPD:2,2013-08-06T01:59:00Z,27.3338,-82.5794,0.0,32.64,1111122 
FWRI,ioos:station:FWRI:NPD:2,2013-08-06T02:59:00Z,27.3338,-82.5794,0.0,32.71,1111122 
FWRI,ioos:station:FWRI:NPD:2,2013-08-06T03:59:00Z,27.3338,-82.5794,0.0,33.26,1111122 
FWRI,ioos:station:FWRI:NPD:2,2013-08-06T04:59:00Z,27.3338,-82.5794,0.0,33.56,1111122 
FWRI,ioos:station:FWRI:NPD:2,2013-08-06T05:59:00Z,27.3338,-82.5794,0.0,33.68,1111122 
FWRI,ioos:station:FWRI:NPD:2,2013-08-06T06:59:00Z,27.3338,-82.5794,0.0,33.74,1111122 
FWRI,ioos:station:FWRI:NPD:2,2013-08-06T07:59:00Z,27.3338,-82.5794,0.0,33.85,1111122 
FWRI,ioos:station:FWRI:NPD:2,2013-08-06T08:59:00Z,27.3338,-82.5794,0.0,33.85,1111122 
FWRI,ioos:station:FWRI:NPD:2,2013-08-06T09:59:00Z,27.3338,-82.5794,0.0,33.65,1111122 
FWRI,ioos:station:FWRI:NPD:2,2013-08-06T10:59:00Z,27.3338,-82.5794,0.0,33.71,1111122 
FWRI,ioos:station:FWRI:NPD:2,2013-08-06T11:59:00Z,27.3338,-82.5794,0.0,33.2,1111122 
FWRI,ioos:station:FWRI:NPD:2,2013-08-06T12:59:00Z,27.3338,-82.5794,0.0,33.6,1111122 
FWRI,ioos:station:FWRI:NPD:2,2013-08-06T13:59:00Z,27.3338,-82.5794,0.0,33.95,1111122 
FWRI,ioos:station:FWRI:NPD:2,2013-08-06T14:59:00Z,27.3338,-82.5794,0.0,34.05,1111122 
FWRI,ioos:station:FWRI:NPD:2,2013-08-06T15:59:00Z,27.3338,-82.5794,0.0,34.06,1111122 
FWRI,ioos:station:FWRI:NPD:2,2013-08-06T16:59:00Z,27.3338,-82.5794,0.0,34.12,1111122 
FWRI,ioos:station:FWRI:NPD:2,2013-08-06T17:59:00Z,27.3338,-82.5794,0.0,34.15,1111122 
FWRI,ioos:station:FWRI:NPD:2,2013-08-06T18:59:00Z,27.3338,-82.5794,0.0,34.15,1111122 
FWRI,ioos:station:FWRI:NPD:2,2013-08-06T19:59:00Z,27.3338,-82.5794,0.0,33.85,1111122 
FWRI,ioos:station:FWRI:NPD:2,2013-08-06T20:59:00Z,27.3338,-82.5794,0.0,33.25,1111122 
FWRI,ioos:station:FWRI:NPD:2,2013-08-06T21:59:00Z,27.3338,-82.5794,0.0,33.07,1111122 
FWRI,ioos:station:FWRI:NPD:2,2013-08-06T22:59:00Z,27.3338,-82.5794,0.0,32.86,1111122 
FWRI,ioos:station:FWRI:NPD:2,2013-08-06T23:59:00Z,27.3338,-82.5794,0.0,32.78,1111122 
FWRI,ioos:station:FWRI:NPD:2,2013-08-07T00:59:00Z,27.3338,-82.5794,0.0,32.77,1111122 
FWRI,ioos:station:FWRI:NPD:2,2013-08-07T01:59:00Z,27.3338,-82.5794,0.0,32.74,1111122 
FWRI,ioos:station:FWRI:NPD:2,2013-08-07T02:59:00Z,27.3338,-82.5794,0.0,32.8,1111122 
FWRI,ioos:station:FWRI:NPD:2,2013-08-07T03:59:00Z,27.3338,-82.5794,0.0,33.63,1111122 
FWRI,ioos:station:FWRI:NPD:2,2013-08-07T04:59:00Z,27.3338,-82.5794,0.0,34.03,1111122 
FWRI,ioos:station:FWRI:NPD:2,2013-08-07T05:59:00Z,27.3338,-82.5794,0.0,34.05,1111122 
FWRI,ioos:station:FWRI:NPD:2,2013-08-07T06:59:00Z,27.3338,-82.5794,0.0,34.14,1111122 
FWRI,ioos:station:FWRI:NPD:2,2013-08-07T07:59:00Z,27.3338,-82.5794,0.0,34.19,1111122 
FWRI,ioos:station:FWRI:NPD:2,2013-08-07T08:59:00Z,27.3338,-82.5794,0.0,34.17,1111122 
FWRI,ioos:station:FWRI:NPD:2,2013-08-07T09:59:00Z,27.3338,-82.5794,0.0,33.29,1111122 
FWRI,ioos:station:FWRI:NPD:2,2013-08-07T10:59:00Z,27.3338,-82.5794,0.0,33.36,1111122 
FWRI,ioos:station:FWRI:NPD:2,2013-08-07T11:59:00Z,27.3338,-82.5794,0.0,33.27,1111122 
FWRI,ioos:station:FWRI:NPD:2,2013-08-07T12:59:00Z,27.3338,-82.5794,0.0,33.18,1111122 
FWRI,ioos:station:FWRI:NPD:2,2013-08-07T13:59:00Z,27.3338,-82.5794,0.0,33.59,1111122 
FWRI,ioos:station:FWRI:NPD:2,2013-08-07T14:59:00Z,27.3338,-82.5794,0.0,34.08,1111122 
FWRI,ioos:station:FWRI:NPD:2,2013-08-07T15:59:00Z,27.3338,-82.5794,0.0,34.05,1111122 
FWRI,ioos:station:FWRI:NPD:2,2013-08-07T16:59:00Z,27.3338,-82.5794,0.0,34.05,1111122 
FWRI,ioos:station:FWRI:NPD:2,2013-08-07T17:59:00Z,27.3338,-82.5794,0.0,34.06,1111122 
FWRI,ioos:station:FWRI:NPD:2,2013-08-07T18:59:00Z,27.3338,-82.5794,0.0,34.05,1111122 
FWRI,ioos:station:FWRI:NPD:2,2013-08-07T19:59:00Z,27.3338,-82.5794,0.0,34.07,1111122 
FWRI,ioos:station:FWRI:NPD:2,2013-08-07T20:59:00Z,27.3338,-82.5794,0.0,33.57,1111122 
FWRI,ioos:station:FWRI:NPD:2,2013-08-07T21:59:00Z,27.3338,-82.5794,0.0,33.33,1111122 
FWRI,ioos:station:FWRI:NPD:2,2013-08-07T22:59:00Z,27.3338,-82.5794,0.0,33.23,1111122 
FWRI,ioos:station:FWRI:NPD:2,2013-08-07T23:59:00Z,27.3338,-82.5794,0.0,32.94,1111122 
FWRI,ioos:station:FWRI:NPD:2,2013-08-08T00:59:00Z,27.3338,-82.5794,0.0,32.45,1111122 
FWRI,ioos:station:FWRI:NPD:2,2013-08-08T01:59:00Z,27.3338,-82.5794,0.0,32.2,1111122 
FWRI,ioos:station:FWRI:NPD:2,2013-08-08T02:59:00Z,27.3338,-82.5794,0.0,32.14,1111122 
FWRI,ioos:station:FWRI:NPD:2,2013-08-08T03:59:00Z,27.3338,-82.5794,0.0,33.39,1111122 
FWRI,ioos:station:FWRI:NPD:2,2013-08-08T04:59:00Z,27.3338,-82.5794,0.0,33.94,1111122 
FWRI,ioos:station:FWRI:NPD:2,2013-08-08T05:59:00Z,27.3338,-82.5794,0.0,34.1,1111122 
FWRI,ioos:station:FWRI:NPD:2,2013-08-08T06:59:00Z,27.3338,-82.5794,0.0,34.19,1111122 
FWRI,ioos:station:FWRI:NPD:2,2013-08-08T07:59:00Z,27.3338,-82.5794,0.0,34.2,1111122 
FWRI,ioos:station:FWRI:NPD:2,2013-08-08T08:59:00Z,27.3338,-82.5794,0.0,34.23,1111122 
FWRI,ioos:station:FWRI:NPD:2,2013-08-08T09:59:00Z,27.3338,-82.5794,0.0,33.72,1111122 
FWRI,ioos:station:FWRI:NPD:2,2013-08-08T10:59:00Z,27.3338,-82.5794,0.0,32.76,1111122 
FWRI,ioos:station:FWRI:NPD:2,2013-08-08T11:59:00Z,27.3338,-82.5794,0.0,32.33,1111122 
FWRI,ioos:station:FWRI:NPD:2,2013-08-08T12:59:00Z,27.3338,-82.5794,0.0,32.65,1111122 
FWRI,ioos:station:FWRI:NPD:2,2013-08-08T13:59:00Z,27.3338,-82.5794,0.0,32.93,1111122 
FWRI,ioos:station:FWRI:NPD:2,2013-08-08T14:59:00Z,27.3338,-82.5794,0.0,33.89,1111122 
FWRI,ioos:station:FWRI:NPD:2,2013-08-08T15:59:00Z,27.3338,-82.5794,0.0,34.22,1111122 
FWRI,ioos:station:FWRI:NPD:2,2013-08-08T16:59:00Z,27.3338,-82.5794,0.0,34.36,1111122 
FWRI,ioos:station:FWRI:NPD:2,2013-08-08T17:59:00Z,27.3338,-82.5794,0.0,34.38,1111122 
FWRI,ioos:station:FWRI:NPD:2,2013-08-08T18:59:00Z,27.3338,-82.5794,0.0,34.35,1111122 
FWRI,ioos:station:FWRI:NPD:2,2013-08-08T19:59:00Z,27.3338,-82.5794,0.0,34.33,1111122 
FWRI,ioos:station:FWRI:NPD:2,2013-08-08T20:59:00Z,27.3338,-82.5794,0.0,34.11,1111122 
FWRI,ioos:station:FWRI:NPD:2,2013-08-08T21:59:00Z,27.3338,-82.5794,0.0,33.57,1111122 
FWRI,ioos:station:FWRI:NPD:2,2013-08-08T22:59:00Z,27.3338,-82.5794,0.0,33.39,1111122 
FWRI,ioos:station:FWRI:NPD:2,2013-08-08T23:59:00Z,27.3338,-82.5794,0.0,32.75,1111122 
FWRI,ioos:station:FWRI:NPD:2,2013-08-09T00:59:00Z,27.3338,-82.5794,0.0,32.62,1111122 
FWRI,ioos:station:FWRI:NPD:2,2013-08-09T01:59:00Z,27.3338,-82.5794,0.0,32.64,1111122 
FWRI,ioos:station:FWRI:NPD:2,2013-08-09T02:59:00Z,27.3338,-82.5794,0.0,32.45,1111122 
FWRI,ioos:station:FWRI:NPD:2,2013-08-09T03:59:00Z,27.3338,-82.5794,0.0,32.48,1111122 
FWRI,ioos:station:FWRI:NPD:2,2013-08-09T04:59:00Z,27.3338,-82.5794,0.0,33.52,1111122 
FWRI,ioos:station:FWRI:NPD:2,2013-08-09T05:59:00Z,27.3338,-82.5794,0.0,33.9,1111122 
FWRI,ioos:station:FWRI:NPD:2,2013-08-09T06:59:00Z,27.3338,-82.5794,0.0,33.97,1111122 
FWRI,ioos:station:FWRI:NPD:2,2013-08-09T07:59:00Z,27.3338,-82.5794,0.0,34.01,1111122 
FWRI,ioos:station:FWRI:NPD:2,2013-08-09T08:59:00Z,27.3338,-82.5794,0.0,34.02,1111122 
FWRI,ioos:station:FWRI:NPD:2,2013-08-09T09:59:00Z,27.3338,-82.5794,0.0,33.89,1111122 
FWRI,ioos:station:FWRI:NPD:2,2013-08-09T10:59:00Z,27.3338,-82.5794,0.0,33.0,1111122 
FWRI,ioos:station:FWRI:NPD:2,2013-08-09T11:59:00Z,27.3338,-82.5794,0.0,32.77,1111122 
FWRI,ioos:station:FWRI:NPD:2,2013-08-09T12:59:00Z,27.3338,-82.5794,0.0,32.68,1111122 
FWRI,ioos:station:FWRI:NPD:2,2013-08-09T13:59:00Z,27.3338,-82.5794,0.0,32.66,1111122 
FWRI,ioos:station:FWRI:NPD:2,2013-08-09T14:59:00Z,27.3338,-82.5794,0.0,33.0,1111122 
FWRI,ioos:station:FWRI:NPD:2,2013-08-09T15:59:00Z,27.3338,-82.5794,0.0,33.63,1111122 
FWRI,ioos:station:FWRI:NPD:2,2013-08-09T16:59:00Z,27.3338,-82.5794,0.0,33.83,1111122 
FWRI,ioos:station:FWRI:NPD:2,2013-08-09T17:59:00Z,27.3338,-82.5794,0.0,33.97,1111122 
FWRI,ioos:station:FWRI:NPD:2,2013-08-09T18:59:00Z,27.3338,-82.5794,0.0,34.02,1111122 
FWRI,ioos:station:FWRI:NPD:2,2013-08-09T19:59:00Z,27.3338,-82.5794,0.0,34.07,1111122 
FWRI,ioos:station:FWRI:NPD:2,2013-08-09T20:59:00Z,27.3338,-82.5794,0.0,34.08,1111122 
FWRI,ioos:station:FWRI:NPD:2,2013-08-09T21:59:00Z,27.3338,-82.5794,0.0,33.73,1111122 
FWRI,ioos:station:FWRI:NPD:2,2013-08-09T22:59:00Z,27.3338,-82.5794,0.0,33.2,1111122 
FWRI,ioos:station:FWRI:NPD:2,2013-08-09T23:59:00Z,27.3338,-82.5794,0.0,32.84,1111122 
FWRI,ioos:station:FWRI:NPD:2,2013-08-10T00:59:00Z,27.3338,-82.5794,0.0,32.35,1111122 
FWRI,ioos:station:FWRI:NPD:2,2013-08-10T01:59:00Z,27.3338,-82.5794,0.0,30.86,1111122 
FWRI,ioos:station:FWRI:NPD:2,2013-08-10T02:59:00Z,27.3338,-82.5794,0.0,30.85,1111122 
FWRI,ioos:station:FWRI:NPD:2,2013-08-10T03:59:00Z,27.3338,-82.5794,0.0,31.15,1111122 
FWRI,ioos:station:FWRI:NPD:2,2013-08-10T04:59:00Z,27.3338,-82.5794,0.0,32.98,1111122 
FWRI,ioos:station:FWRI:NPD:2,2013-08-10T05:59:00Z,27.3338,-82.5794,0.0,33.58,1111122 
FWRI,ioos:station:FWRI:NPD:2,2013-08-10T06:59:00Z,27.3338,-82.5794,0.0,33.68,1111122 
FWRI,ioos:station:FWRI:NPD:2,2013-08-10T07:59:00Z,27.3338,-82.5794,0.0,33.74,1111122 
FWRI,ioos:station:FWRI:NPD:2,2013-08-10T08:59:00Z,27.3338,-82.5794,0.0,33.73,1111122 
FWRI,ioos:station:FWRI:NPD:2,2013-08-10T09:59:00Z,27.3338,-82.5794,0.0,33.55,1111122 
FWRI,ioos:station:FWRI:NPD:2,2013-08-10T10:59:00Z,27.3338,-82.5794,0.0,32.26,1111122 
FWRI,ioos:station:FWRI:NPD:2,2013-08-10T11:59:00Z,27.3338,-82.5794,0.0,32.02,1111122 
FWRI,ioos:station:FWRI:NPD:2,2013-08-10T12:59:00Z,27.3338,-82.5794,0.0,32.0,1111122 
FWRI,ioos:station:FWRI:NPD:2,2013-08-10T13:59:00Z,27.3338,-82.5794,0.0,31.74,1111122 
FWRI,ioos:station:FWRI:NPD:2,2013-08-10T14:59:00Z,27.3338,-82.5794,0.0,31.74,1111122 
FWRI,ioos:station:FWRI:NPD:2,2013-08-10T15:59:00Z,27.3338,-82.5794,0.0,32.21,1111122 
FWRI,ioos:station:FWRI:NPD:2,2013-08-10T16:59:00Z,27.3338,-82.5794,0.0,33.21,1111122 
FWRI,ioos:station:FWRI:NPD:2,2013-08-10T17:59:00Z,27.3338,-82.5794,0.0,33.54,1111122 
FWRI,ioos:station:FWRI:NPD:2,2013-08-10T18:59:00Z,27.3338,-82.5794,0.0,33.68,1111122 
FWRI,ioos:station:FWRI:NPD:2,2013-08-10T19:59:00Z,27.3338,-82.5794,0.0,33.68,1111122 
FWRI,ioos:station:FWRI:NPD:2,2013-08-10T20:59:00Z,27.3338,-82.5794,0.0,33.68,1111122 
FWRI,ioos:station:FWRI:NPD:2,2013-08-10T21:59:00Z,27.3338,-82.5794,0.0,13.21,1111122 
FWRI,ioos:station:FWRI:NPD:2,2013-08-10T22:59:00Z,27.3338,-82.5794,0.0,13.23,1111122 
FWRI,ioos:station:FWRI:NPD:2,2013-08-10T23:59:00Z,27.3338,-82.5794,0.0,13.21,1111122 
FWRI,ioos:station:FWRI:NPD:2,2013-08-11T00:59:00Z,27.3338,-82.5794,0.0,13.3,1111122 
FWRI,ioos:station:FWRI:NPD:2,2013-08-11T01:59:00Z,27.3338,-82.5794,0.0,13.48,1111122 
FWRI,ioos:station:FWRI:NPD:2,2013-08-11T02:59:00Z,27.3338,-82.5794,0.0,31.92,1111122 
FWRI,ioos:station:FWRI:NPD:2,2013-08-11T03:59:00Z,27.3338,-82.5794,0.0,31.96,1111122 
FWRI,ioos:station:FWRI:NPD:2,2013-08-11T04:59:00Z,27.3338,-82.5794,0.0,32.66,1111122 
FWRI,ioos:station:FWRI:NPD:2,2013-08-11T05:59:00Z,27.3338,-82.5794,0.0,33.2,1111122 
FWRI,ioos:station:FWRI:NPD:2,2013-08-11T06:59:00Z,27.3338,-82.5794,0.0,33.42,1111122 
FWRI,ioos:station:FWRI:NPD:2,2013-08-11T07:59:00Z,27.3338,-82.5794,0.0,33.49,1111122 
FWRI,ioos:station:FWRI:NPD:2,2013-08-11T08:59:00Z,27.3338,-82.5794,0.0,33.52,1111122 
FWRI,ioos:station:FWRI:NPD:2,2013-08-11T09:59:00Z,27.3338,-82.5794,0.0,33.56,1111122 
FWRI,ioos:station:FWRI:NPD:2,2013-08-11T10:59:00Z,27.3338,-82.5794,0.0,33.0,1111122 
FWRI,ioos:station:FWRI:NPD:2,2013-08-11T11:59:00Z,27.3338,-82.5794,0.0,32.26,1111122 
FWRI,ioos:station:FWRI:NPD:2,2013-08-11T12:59:00Z,27.3338,-82.5794,0.0,32.18,1111122 
FWRI,ioos:station:FWRI:NPD:2,2013-08-11T13:59:00Z,27.3338,-82.5794,0.0,32.08,1111122 
FWRI,ioos:station:FWRI:NPD:2,2013-08-11T14:59:00Z,27.3338,-82.5794,0.0,31.98,1111122 
FWRI,ioos:station:FWRI:NPD:2,2013-08-11T15:59:00Z,27.3338,-82.5794,0.0,31.96,1111122 
FWRI,ioos:station:FWRI:NPD:2,2013-08-11T16:59:00Z,27.3338,-82.5794,0.0,32.55,1111122 
FWRI,ioos:station:FWRI:NPD:2,2013-08-11T17:59:00Z,27.3338,-82.5794,0.0,33.19,1111122 
FWRI,ioos:station:FWRI:NPD:2,2013-08-11T18:59:00Z,27.3338,-82.5794,0.0,33.27,1111122 
FWRI,ioos:station:FWRI:NPD:2,2013-08-11T19:59:00Z,27.3338,-82.5794,0.0,33.43,1111122 
FWRI,ioos:station:FWRI:NPD:2,2013-08-11T20:59:00Z,27.3338,-82.5794,0.0,33.43,1111122 
FWRI,ioos:station:FWRI:NPD:2,2013-08-11T21:59:00Z,27.3338,-82.5794,0.0,33.4,1111122 
FWRI,ioos:station:FWRI:NPD:2,2013-08-11T22:59:00Z,27.3338,-82.5794,0.0,33.36,1111122 
FWRI,ioos:station:FWRI:NPD:2,2013-08-11T23:59:00Z,27.3338,-82.5794,0.0,32.99,1111122 
FWRI,ioos:station:FWRI:NPD:2,2013-08-12T00:59:00Z,27.3338,-82.5794,0.0,32.75,1111122 
FWRI,ioos:station:FWRI:NPD:2,2013-08-12T01:59:00Z,27.3338,-82.5794,0.0,32.51,1111122 
FWRI,ioos:station:FWRI:NPD:2,2013-08-12T02:59:00Z,27.3338,-82.5794,0.0,32.23,1111122 
FWRI,ioos:station:FWRI:NPD:2,2013-08-12T03:59:00Z,27.3338,-82.5794,0.0,32.01,1111122 
FWRI,ioos:station:FWRI:NPD:2,2013-08-12T04:59:00Z,27.3338,-82.5794,0.0,32.45,1111122 
FWRI,ioos:station:FWRI:NPD:2,2013-08-12T05:59:00Z,27.3338,-82.5794,0.0,33.1,1111122 
FWRI,ioos:station:FWRI:NPD:2,2013-08-12T06:59:00Z,27.3338,-82.5794,0.0,33.32,1111122 
FWRI,ioos:station:FWRI:NPD:2,2013-08-12T07:59:00Z,27.3338,-82.5794,0.0,33.44,1111122 
FWRI,ioos:station:FWRI:NPD:2,2013-08-12T08:59:00Z,27.3338,-82.5794,0.0,33.47,1111122 
FWRI,ioos:station:FWRI:NPD:2,2013-08-12T09:59:00Z,27.3338,-82.5794,0.0,33.49,1111122 
FWRI,ioos:station:FWRI:NPD:2,2013-08-12T10:59:00Z,27.3338,-82.5794,0.0,33.49,1111122 
FWRI,ioos:station:FWRI:NPD:2,2013-08-12T11:59:00Z,27.3338,-82.5794,0.0,32.93,1111122 
FWRI,ioos:station:FWRI:NPD:2,2013-08-12T12:59:00Z,27.3338,-82.5794,0.0,32.5,1111122 
FWRI,ioos:station:FWRI:NPD:2,2013-08-12T13:59:00Z,27.3338,-82.5794,0.0,12.7,1111122 